Temp
-3 -4 -5 -4 -6 -6 -6 -5 -6 -6 -6 -7 -6 -5 -6 -6 -5 -5 -5 -6 -6 -6 -5 -6 -5 -6 -7 -5 -5 -5 -5 -5 -5 -6 -6 -6 -6 -6 -6 -6 -6 -6 -6 -6
-4 -3 -5 -5 -7 -7 -7 -6 -6 -6 -5 -7 -6 -6 -6 -6 -5 -6 -5 -6 -6 -6 -5 -5 -6 -6 -6 -6 -6 -6 -6 -6 -5 -5 -5 -5 -6 -6 -6 -6 -6 -6 -6 -6
-4 -4 -5 -4 -6 -7 -7 -5 -6 -6 -6 -6 -6 -7 -6 -5 -6 -7 -6 -5 -5 -6 -6 -6 -6 -7 -6 -5 -6 -6 -6 -6 -6 -5 -5 -6 -6 -6 -6 -7 -7 -6 -7 -7
-4 -4 -4 -5 -6 -6 -6 -6 -5 -6 -7 -5 -6 -7 -6 -6 -6 -5 -6 -6 -6 -6 -6 -6 -7 -7 -6 -7 -7 -6 -6 -6 -5 -5 -4 -6 -6 -6 -6 -6 -7 -6 -7 -8
-4 -4 -4 -5 -6 -6 -6 -6 -6 -7 -6 -6 -6 -6 -6 -5 -6 -6 -5 -6 -6 -7 -6 -6 -6 -6 -6 -6 -6 -6 -6 -6 -5 -5 -6 -7 -6 -6 -7 -7 -7 -6 -6 -7
-4 -5 -5 -6 -6 -6 -6 -7 -6 -6 -6 -6 -6 -6 -5 -5 -5 -5 -5 -6 -7 -6 -7 -6 -6 -6 -6 -6 -5 -6 -5 -5 -5 -6 -6 -5 -6 -6 -6 -7 -7 -6 -7 -7
-5 -4 -4 -6 -6 -6 -6 -6 -6 -6 -6 -6 -6 -5 -6 -6 -6 -6 -5 -6 -7 -6 -7 -7 -6 -6 -6 -6 -5 -5 -5 -5 -5 -6 -6 -5 -6 -6 -6 -6 -6 -6 -6 -6
-5 -5 -5 -5 -6 -7 -6 -6 -7 -7 -6 -6 -6 -6 -5 -5 -5 -5 -5 -6 -7 -6 -7 -7 -6 -6 -6 -5 -6 -5 -5 -5 -5 -5 -6 -6 -6 -6 -6 -6 -5 -5 -6 -6
-6 -5 -6 -6 -6 -6 -6 -6 -6 -6 -6 -6 -6 -6 -5 -5 -5 -5 -6 -6 -6 -6 -7 -7 -7 -6 -6 -6 -6 -5 -5 -6 -6 -6 -6 -6 -6 -6 -6 -6 -6 -5 -6 -6
-6 -6 -6 -6 -6 -6 -6 -6 -6 -6 -6 -6 -5 -5 -5 -5 -5 -7 -5 -4 -6 -6 -7 -7 -6 -6 -6 -6 -6 -6 -6 -6 -6 -6 -6 -6 -6 -6 -6 -6 -6 -6 -5 -5
-6 -7 -6 -6 -6 -6 -6 -6 -6 -6 -6 -6 -6 -5 -5 -6 -6 -6 -5 -4 -5 -5 -6 -7 -6 -6 -6 -6 -6 -6 -6 -6 -6 -6 -6 -6 -6 -6 -6 -6 -6 -5 -5 -5
-8 -7 -6 -6 -6 -6 -6 -6 -6 -6 -5 -6 -6 -5 -5 -6 -6 -5 -6 -6 -5 -6 -6 -6 -6 -6 -6 -6 -6 -6 -6 -5 -5 -5 -5 -5 -6 -6 -6 -6 -5 -5 -5 -5
-8 -8 -7 -6 -6 -6 -6 -6 -6 -7 -7 -6 -6 -6 -6 -6 -5 -6 -6 -7 -7 -6 -6 -7 -7 -7 -7 -7 -6 -6 -6 -6 -6 -6 -6 -6 -6 -6 -6 -5 -5 -5 -6 -6
-8 -8 -8 -7 -6 -6 -6 -6 -6 -6 -6 -6 -6 -6 -5 -5 -6 -6 -7 -6 -6 -6 -7 -7 -7 -7 -7 -7 -7 -6 -6 -6 -6 -7 -7 -6 -6 -6 -6 -6 -6 -6 -6 -6
-9 -8 -8 -7 -7 -6 -6 -6 -7 -6 -6 -6 -6 -6 -6 -6 -6 -7 -7 -7 -6 -6 -7 -7 -7 -7 -7 -7 -7 -7 -6 -6 -6 -7 -7 -6 -6 -6 -6 -6 -6 -6 -6 -6
-9 -8 -8 -8 -7 -7 -7 -6 -6 -6 -6 -6 -6 -6 -6 -6 -7 -7 -7 -7 -5 -7 -7 -7 -7 -7 -8 -7 -7 -7 -7 -6 -6 -6 -6 -6 -6 -6 -6 -5 -6 -6 -6 -6
-9 -8 -8 -7 -7 -7 -7 -7 -6 -6 -7 -7 -7 -6 -6 -6 -6 -7 -7 -7 -5 -7 -7 -7 -7 -7 -7 -8 -7 -7 -7 -6 -6 -6 -6 -6 -6 -6 -6 -6 -6 -6 -6 -6
-9 -9 -9 -8 -8 -8 -6 -6 -7 -7 -7 -7 -7 -7 -7 -7 -7 -6 -6 -6 -6 -6 -6 -6 -8 -8 -8 -8 -8 -8 -8 -7 -6 -6 -6 -6 -6 -6 -6 -6 -6 -6 -6 -7
-9 -10 -10 -10 -10 -9 -7 -6 -7 -7 -6 -7 -7 -7 -7 -7 -7 -7 -5 -6 -7 -6 -7 -6 -8 -8 -8 -8 -8 -8 -8 -7 -7 -7 -6 -6 -6 -6 -6 -7 -6 -7 -7 -7
-10 -10 -10 -10 -10 -9 -6 -8 -8 -8 -8 -7 -7 -7 -8 -7 -7 -7 -7 -7 -7 -7 -7 -6 -8 -8 -8 -8 -8 -9 -8 -8 -7 -7 -6 -6 -6 -6 -6 -7 -7 -7 -7 -7
-11 -10 -11 -10 -10 -9 -9 -8 -8 -8 -8 -8 -7 -8 -8 -7 -7 -7 -7 -8 -8 -7 -7 -7 -7 -8 -8 -8 -9 -9 -8 -8 -7 -7 -7 -6 -6 -7 -7 -7 -7 -7 -7 -8
-11 -10 -10 -9 -10 -8 -9 -9 -8 -9 -9 -8 -8 -8 -7 -7 -7 -7 -7 -7 -7 -8 -8 -7 -8 -8 -9 -8 -9 -8 -8 -8 -8 -7 -7 -7 -7 -7 -7 -7 -7 -8 -8 -9
-11 -10 -10 -11 -11 -11 -10 -9 -9 -8 -8 -9 -8 -8 -8 -8 -7 -7 -8 -7 -6 -8 -8 -9 -9 -9 -9 -9 -9 -9 -8 -8 -8 -8 -7 -8 -8 -7 -7 -8 -8 -8 -9 -10
-10 -11 -11 -11 -11 -10 -10 -9 -9 -8 -9 -9 -9 -8 -8 -8 -7 -8 -7 -6 -9 -6 -8 -9 -9 -9 -9 -9 -9 -9 -9 -8 -8 -8 -8 -8 -8 -8 -8 -8 -9 -9 -10 -10
-11 -10 -10 -11 -10 -10 -9 -10 -10 -10 -9 -9 -8 -7 -9 -8 -8 -9 -9 -8 -9 -8 -9 -9 -9 -9 -9 -9 -9 -9 -9 -9 -8 -8 -8 -8 -8 -8 -9 -9 -9 -10 -11 -11
-12 -12 -12 -11 -10 -10 -11 -10 -10 -10 -10 -10 -9 -8 -9 -9 -9 -9 -9 -9 -10 -9 -9 -9 -9 -10 -10 -9 -9 -9 -9 -9 -8 -9 -9 -9 -9 -9 -9 -10 -11 -11 -11 -11
Height
5918 5919 5921 5921 5919 5924 5928 5924 5929 5923 5922 5917 5925 5925 5927 5926 5923 5919 5917 5918 5915 5913 5911 5909 5904 5905 5901 5901 5901 5903 5907 5906 5903 5902 5899 5897 5898 5898 5895 5896 5895 5892 5891 5891
5914 5918 5920 5919 5919 5923 5924 5928 5928 5928 5927 5923 5928 5928 5926 5926 5917 5917 5916 5917 5916 5912 5910 5908 5906 5903 5902 5900 5898 5900 5901 5903 5901 5899 5896 5893 5891 5892 5892 5892 5891 5889 5888 5888
5909 5917 5916 5917 5919 5923 5922 5923 5927 5922 5929 5933 5925 5923 5920 5923 5920 5918 5913 5917 5915 5911 5910 5909 5905 5902 5902 5897 5898 5898 5898 5901 5901 5896 5883 5889 5884 5886 5884 5887 5889 5885 5885 5885
5905 5911 5911 5913 5916 5923 5924 5925 5930 5930 5925 5926 5929 5918 5916 5919 5918 5914 5913 5913 5914 5910 5908 5910 5909 5906 5905 5903 5901 5901 5898 5900 5899 5895 5848 5885 5886 5886 5885 5886 5887 5887 5886 5885
5901 5905 5906 5908 5913 5919 5922 5924 5925 5923 5925 5923 5924 5923 5917 5913 5911 5913 5911 5909 5913 5912 5909 5911 5909 5910 5908 5907 5906 5903 5905 5904 5899 5894 5890 5885 5885 5884 5887 5886 5885 5885 5883 5881
5894 5898 5901 5904 5908 5913 5918 5917 5918 5919 5921 5921 5920 5920 5920 5918 5918 5914 5910 5909 5910 5906 5906 5908 5910 5910 5910 5909 5907 5908 5908 5904 5902 5896 5895 5894 5891 5892 5890 5890 5888 5883 5881 5885
5889 5891 5895 5899 5903 5907 5911 5912 5912 5913 5915 5916 5917 5915 5916 5915 5913 5912 5909 5905 5905 5908 5902 5906 5908 5909 5908 5910 5910 5909 5908 5906 5900 5899 5898 5896 5894 5893 5891 5889 5889 5888 5886 5884
5883 5886 5892 5895 5898 5903 5905 5908 5908 5908 5910 5913 5912 5909 5910 5908 5910 5909 5907 5903 5900 5900 5900 5906 5906 5907 5907 5908 5907 5907 5907 5904 5903 5901 5899 5895 5894 5892 5891 5888 5887 5888 5885 5883
5875 5879 5887 5890 5895 5897 5901 5899 5903 5904 5907 5909 5910 5906 5905 5906 5907 5908 5899 5902 5903 5900 5898 5907 5906 5905 5906 5904 5902 5902 5901 5901 5901 5898 5896 5894 5891 5889 5887 5886 5885 5884 5883 5881
5870 5872 5878 5883 5892 5893 5893 5898 5898 5899 5901 5903 5905 5902 5905 5903 5902 5900 5902 5903 5897 5898 5905 5905 5905 5904 5904 5904 5903 5902 5900 5898 5897 5894 5891 5890 5888 5886 5884 5884 5883 5880 5879 5877
5864 5867 5873 5876 5879 5886 5889 5889 5892 5894 5895 5896 5898 5901 5900 5901 5900 5901 5902 5897 5894 5898 5903 5904 5904 5903 5902 5902 5900 5899 5897 5896 5894 5892 5890 5888 5885 5884 5882 5880 5879 5876 5875 5872
5856 5860 5864 5868 5875 5879 5884 5885 5888 5889 5891 5891 5894 5895 5894 5894 5897 5898 5894 5893 5899 5898 5899 5901 5901 5900 5899 5898 5896 5895 5894 5892 5890 5889 5887 5884 5883 5881 5879 5877 5874 5871 5869 5866
5852 5853 5857 5863 5869 5872 5877 5881 5882 5884 5885 5886 5890 5891 5892 5892 5894 5895 5893 5891 5890 5896 5896 5897 5898 5898 5897 5894 5892 5891 5890 5888 5886 5884 5883 5881 5880 5877 5875 5872 5869 5866 5863 5861
5844 5846 5848 5853 5862 5869 5872 5876 5878 5879 5878 5881 5885 5886 5888 5889 5890 5889 5889 5891 5891 5891 5893 5894 5896 5895 5893 5891 5889 5887 5885 5883 5881 5879 5878 5877 5876 5873 5870 5868 5864 5861 5858 5855
5837 5840 5844 5848 5853 5859 5863 5868 5871 5872 5874 5877 5880 5879 5880 5882 5885 5886 5887 5888 5886 5887 5889 5889 5892 5890 5888 5887 5885 5883 5881 5880 5878 5875 5874 5872 5870 5868 5866 5863 5859 5856 5853 5849
5830 5834 5839 5843 5845 5848 5852 5857 5862 5865 5868 5869 5873 5876 5876 5877 5877 5876 5883 5879 5881 5882 5882 5884 5884 5883 5883 5883 5882 5880 5878 5876 5874 5872 5870 5868 5866 5863 5861 5857 5854 5851 5848 5844
5822 5827 5831 5834 5841 5843 5843 5850 5855 5858 5861 5864 5864 5869 5872 5871 5868 5871 5874 5873 5873 5874 5876 5878 5877 5877 5877 5878 5878 5876 5874 5872 5870 5868 5865 5862 5860 5858 5854 5851 5848 5845 5841 5837
5814 5819 5823 5828 5832 5832 5840 5845 5847 5848 5851 5855 5858 5860 5860 5859 5861 5862 5864 5865 5866 5868 5867 5867 5870 5871 5871 5873 5872 5870 5868 5866 5865 5863 5860 5857 5855 5852 5849 5846 5843 5839 5835 5831
5810 5811 5815 5820 5824 5827 5833 5840 5841 5843 5847 5850 5851 5853 5852 5852 5851 5854 5854 5856 5858 5862 5863 5864 5864 5865 5866 5866 5866 5864 5861 5860 5859 5857 5855 5852 5849 5846 5842 5840 5836 5833 5829 5824
5809 5808 5809 5815 5817 5821 5830 5830 5833 5837 5841 5842 5843 5845 5844 5847 5845 5844 5847 5850 5853 5857 5859 5857 5857 5858 5860 5860 5859 5856 5854 5853 5852 5851 5849 5846 5842 5838 5835 5833 5829 5826 5822 5816
5799 5798 5802 5808 5812 5818 5819 5822 5826 5828 5831 5831 5834 5837 5840 5836 5841 5843 5843 5846 5847 5847 5848 5851 5851 5853 5853 5853 5851 5848 5848 5847 5846 5845 5842 5839 5835 5831 5829 5826 5822 5818 5814 5809
5787 5791 5795 5800 5805 5811 5808 5813 5818 5817 5823 5823 5825 5827 5828 5831 5831 5830 5831 5835 5834 5819 5837 5842 5844 5846 5847 5845 5843 5843 5843 5842 5839 5838 5836 5832 5828 5825 5821 5817 5814 5810 5806 5802
5775 5776 5781 5787 5796 5799 5795 5802 5806 5808 5809 5815 5817 5816 5819 5820 5821 5820 5826 5827 5828 5817 5828 5835 5839 5840 5840 5838 5837 5837 5837 5836 5832 5831 5829 5826 5822 5818 5814 5810 5806 5802 5798 5794
5761 5763 5765 5772 5782 5782 5784 5788 5793 5797 5805 5805 5804 5810 5813 5816 5813 5808 5812 5817 5813 5815 5821 5825 5832 5833 5832 5832 5832 5833 5832 5829 5824 5824 5821 5818 5815 5810 5806 5802 5798 5793 5790 5786
5753 5755 5759 5765 5772 5775 5773 5774 5778 5783 5791 5794 5793 5793 5802 5807 5805 5805 5808 5815 5815 5819 5819 5821 5826 5825 5826 5828 5827 5825 5825 5820 5818 5816 5813 5811 5807 5803 5798 5794 5790 5786 5783 5779
5748 5748 5753 5759 5764 5767 5771 5769 5769 5777 5781 5785 5786 5785 5787 5794 5798 5800 5805 5805 5808 5814 5815 5817 5819 5821 5822 5822 5817 5817 5815 5814 5811 5808 5805 5801 5797 5794 5791 5787 5783 5779 5774 5769
Wind_Speed
16 17 18 10 6 8 15 16 14 13 3 5 14 21 19 14 10 11 11 13 15 17 19 13 17 19 8 6 8 7 10 6 6 8 4 4 4 8 4 5 7 9 10 13
23 14 15 16 8 11 21 12 8 14 6 8 14 23 30 22 6 8 9 9 9 14 18 16 19 22 3 20 8 3 10 14 17 10 3 4 8 10 11 9 10 7 9 7
24 15 19 15 11 8 20 16 8 21 17 8 21 22 26 23 18 20 5 8 13 16 15 18 19 18 16 14 7 15 10 11 10 7 11 9 17 8 12 10 12 10 6 3
28 22 23 17 11 12 14 9 7 17 21 19 9 27 30 31 24 27 9 8 9 13 15 22 25 21 21 19 21 23 21 9 8 10 3 11 13 12 9 10 17 18 11 5
28 25 26 22 16 12 12 17 20 20 16 18 14 18 28 35 36 33 15 11 5 10 10 15 17 17 18 18 18 19 17 16 19 22 25 25 19 15 8 9 9 6 4 7
32 29 26 27 24 23 21 21 24 23 16 25 19 19 23 28 32 17 6 16 11 2 11 12 13 13 12 13 13 13 14 16 17 19 20 18 18 14 13 11 12 8 11 9
33 33 31 32 30 27 25 23 30 32 17 19 23 28 28 31 37 21 14 12 18 1 9 9 9 11 13 11 9 11 13 14 17 16 16 18 17 16 15 14 12 9 9 12
33 34 30 29 27 22 24 20 31 24 15 14 25 29 33 34 30 32 16 9 18 7 7 6 6 7 9 8 12 13 13 14 13 14 15 17 17 16 17 17 16 13 10 12
33 32 24 17 26 26 23 32 25 19 19 21 26 29 30 28 32 33 16 9 4 10 7 3 5 8 12 12 12 16 16 15 14 15 15 17 17 18 17 17 17 15 13 13
30 32 26 17 14 21 22 18 27 21 24 25 14 23 24 28 27 25 26 12 5 9 5 7 10 10 14 14 13 16 17 15 14 16 18 19 19 19 19 20 20 20 19 18
29 33 26 26 27 26 28 30 25 26 27 26 27 24 22 21 24 24 23 23 10 9 7 8 13 13 17 16 17 19 19 19 17 16 18 19 19 19 20 22 21 22 21 23
21 28 32 34 26 10 25 29 29 33 29 30 27 27 27 28 20 30 31 17 15 16 10 11 13 15 17 17 17 17 18 21 21 18 18 20 21 21 21 25 25 23 23 25
25 26 30 37 33 24 24 29 29 25 24 26 23 25 26 29 27 20 22 27 28 17 8 13 14 17 14 15 16 18 18 19 20 22 22 23 22 22 22 25 25 23 24 26
35 33 39 41 38 29 20 26 28 23 24 23 20 24 22 25 24 22 18 13 13 16 14 14 14 15 10 11 15 16 18 20 21 19 21 22 22 21 23 27 27 24 25 27
39 43 40 36 36 30 28 25 23 28 26 27 24 27 18 20 21 21 18 18 11 17 20 16 14 15 14 13 15 17 20 21 22 21 21 22 21 22 24 27 27 24 26 27
32 38 37 37 34 40 36 36 29 18 26 30 24 34 29 23 23 30 25 20 30 17 20 19 16 18 17 18 18 18 20 20 23 22 22 21 22 23 26 27 26 25 28 30
11 23 30 32 37 41 45 41 33 29 24 23 21 25 41 36 36 34 34 33 34 20 25 23 27 26 24 20 20 22 21 21 21 20 19 20 22 24 27 27 25 26 29 31
24 19 18 28 28 41 40 43 39 34 32 36 30 27 18 24 30 38 43 42 35 37 24 19 19 21 22 21 23 24 22 21 21 19 19 21 24 27 28 26 25 28 30 32
34 31 27 26 20 25 33 31 42 37 35 27 22 28 29 25 24 37 46 44 36 20 28 27 19 22 21 24 25 25 23 21 21 21 23 24 26 28 25 25 27 30 32 34
35 28 30 29 25 26 24 18 13 14 17 23 23 26 25 35 33 38 38 40 37 41 33 30 24 26 25 26 28 27 22 21 23 25 25 25 26 25 25 26 29 31 35 36
40 33 26 31 31 28 23 25 23 24 29 30 30 27 31 31 38 37 40 38 42 46 39 35 24 22 26 25 23 22 20 20 22 24 24 25 26 26 26 28 30 33 36 36
37 42 41 37 34 32 35 33 34 23 28 32 32 35 34 30 36 45 42 38 38 33 29 28 19 23 22 23 20 20 20 19 19 23 24 25 26 28 28 30 33 34 35 35
41 46 40 42 35 38 39 41 41 40 32 33 37 38 36 32 33 44 44 46 47 13 21 16 19 23 24 21 20 21 20 17 19 25 29 31 29 30 31 32 34 34 34 35
50 43 46 47 41 42 44 45 48 49 40 36 34 38 37 39 39 39 32 34 17 33 21 18 23 23 24 25 28 21 20 24 26 29 31 31 31 33 33 33 33 33 33 34
53 51 51 47 49 52 46 47 55 47 48 49 40 43 42 45 45 34 40 35 11 19 17 18 21 22 27 26 36 30 27 27 28 31 33 34 35 35 33 32 32 32 32 33
45 49 47 33 38 47 54 49 51 49 48 44 51 53 38 47 42 34 42 30 24 18 19 21 23 27 32 33 29 32 30 32 33 35 37 38 33 32 33 32 31 32 33 33
Wind_Direction
204 197 174 187 127 289 288 73 20 318 90 278 328 333 12 338 356 3 23 348 8 10 6 19 12 12 24 301 270 292 329 314 313 296 289 265 293 275 274 297 314 348 2 339
226 203 183 161 125 272 301 340 357 302 350 263 306 320 318 321 320 326 354 343 8 16 15 12 13 6 308 24 339 330 334 308 299 288 258 255 246 262 264 280 300 301 335 353
232 219 199 198 161 200 279 298 314 329 303 271 304 281 297 318 307 303 326 357 7 26 16 21 8 22 24 12 11 336 338 323 315 268 237 326 275 288 265 256 283 292 301 12
233 224 217 172 182 214 244 307 244 277 297 290 262 294 300 293 302 344 263 317 1 28 18 52 64 58 43 44 45 40 35 7 339 311 244 352 353 323 318 313 322 315 312 100
233 225 231 208 195 205 260 253 228 282 283 300 309 270 300 312 319 313 262 258 273 30 39 44 49 48 53 51 49 46 40 30 34 31 41 48 51 40 348 336 1 328 21 43
228 226 224 209 194 213 243 250 240 239 260 281 291 294 289 297 315 283 264 238 223 65 22 35 35 48 40 38 35 34 30 31 29 33 32 38 46 43 49 55 45 3 21 344
231 230 224 214 208 211 224 249 256 238 254 286 301 292 296 294 319 344 228 218 187 167 54 4 7 23 20 17 2 3 357 360 16 17 19 24 29 22 21 23 12 7 333 334
233 235 232 225 219 241 228 246 258 254 254 272 297 295 305 303 316 321 311 341 194 72 75 344 340 350 340 341 346 338 338 339 344 346 355 6 12 7 3 5 357 350 342 333
233 236 231 211 232 237 239 229 241 255 245 269 275 285 297 306 307 313 324 297 289 349 62 269 305 319 322 336 348 345 334 330 327 329 338 343 351 354 357 353 340 335 333 325
229 238 212 189 241 267 277 260 232 223 254 265 289 295 301 307 308 309 331 315 332 359 272 251 285 308 302 306 317 332 338 334 328 329 330 331 339 344 347 344 339 335 333 327
225 227 211 190 209 253 263 273 237 219 221 250 262 263 290 304 295 312 334 351 339 317 311 285 277 286 297 300 308 323 329 333 333 330 330 332 337 337 337 337 332 329 326 321
232 220 216 200 190 219 256 262 275 229 225 230 251 256 277 306 309 320 331 313 321 312 298 292 291 286 288 298 307 312 315 318 320 322 325 330 329 326 329 330 324 323 322 317
212 230 223 201 191 184 215 254 262 245 235 234 253 257 284 293 300 315 336 315 294 294 312 294 286 280 286 301 308 314 321 322 310 307 306 312 316 317 317 324 322 318 316 317
212 216 218 221 198 197 211 251 262 282 272 229 245 276 274 289 294 308 307 294 302 317 318 305 270 263 279 295 315 317 316 318 319 311 308 312 313 309 311 320 320 315 318 321
221 220 220 227 210 198 211 221 255 268 282 240 212 244 259 276 282 289 253 244 294 310 317 306 266 262 275 289 305 317 314 314 321 318 313 313 312 311 312 315 314 315 315 316
229 232 230 230 205 200 208 211 217 236 265 278 243 222 245 252 268 265 270 260 281 298 298 296 295 280 282 289 290 306 310 310 315 309 307 310 313 312 313 314 311 312 316 316
186 217 228 228 226 210 210 206 210 216 221 242 260 241 230 242 249 259 271 285 283 290 285 291 293 290 284 283 292 298 306 308 315 321 327 318 310 310 312 309 309 313 313 314
200 192 202 230 236 227 227 218 210 219 224 228 230 242 231 246 256 260 261 270 279 298 273 270 271 276 272 283 292 295 302 302 306 314 319 318 315 314 312 307 311 312 313 313
212 192 195 213 215 236 232 233 226 235 241 248 254 242 233 240 266 255 258 265 274 271 292 269 252 259 270 278 290 300 296 297 302 313 318 317 315 310 306 309 310 309 311 311
227 219 197 201 211 226 229 205 213 220 243 250 245 249 266 228 245 249 256 256 265 265 271 261 250 256 268 280 285 286 290 295 301 307 310 311 311 307 307 307 307 309 308 311
227 218 224 215 222 225 220 204 209 229 232 233 230 240 250 239 243 253 253 260 261 266 264 255 250 264 265 276 276 279 288 296 302 304 305 306 306 305 306 306 306 306 309 312
227 233 236 229 222 225 220 216 213 239 223 224 225 238 245 245 237 236 245 248 259 250 246 247 246 258 264 269 268 283 293 296 298 302 305 304 307 306 303 304 304 306 309 312
219 226 214 213 216 233 228 222 217 220 211 225 224 234 242 231 236 243 245 257 271 281 239 248 249 250 257 270 267 277 285 296 306 306 307 303 306 303 300 303 304 309 313 314
221 228 237 218 212 216 225 224 222 219 222 212 216 225 232 236 240 241 241 254 303 281 232 218 244 257 280 287 276 272 281 295 303 304 304 306 303 299 301 303 307 311 312 315
233 233 227 224 213 213 226 232 227 224 224 227 215 223 222 229 231 248 255 262 250 260 246 249 253 262 273 281 289 269 280 297 298 303 304 302 302 299 302 306 309 311 314 313
242 250 242 240 230 232 228 231 240 232 232 240 229 238 214 222 231 245 250 269 274 283 251 254 273 281 281 278 297 281 273 292 296 304 301 301 301 303 305 308 309 309 312 315